Location: Zengebe
(1.4833°N, 32.5167°E)
Time: 22:59:10
(UTC+00:00)

Cosmos 1633 Rocket - Pass Details

Date: 07 June 2020
Orbit: 608 x 623 km, 82.5° (Epoch: 10 July)

Event Time Altitude Azimuth Distance (km) Brightness Sun altitude
Exits shadow 02:31:03 12° 186° (S) 1,820 5.2 -17.3°
Maximum altitude 02:35:02 83° 273° (W) 619 2.9 -16.4°
Drops below altitude 10° 02:39:22 10° 1° (N) 1,953 5.9 -15.4°
Sets 02:41:34 0° 2° (N) 2,853 6.8 -14.9°
